Regional Weather Roundup
Issued by NWS

Home | Current Version | Previous Version | Text Only | Print | Product List | Glossary Off
Versions: 1 2 3 4 5 6 7 8 9 10 11 12 13 14 15 16 17 18 19 20 21 22 23 24 25 26 27 28 29 30 31 32 33 34 35 36 37 38 39 40 41 42 43 44 45 46 47 48 49 50

000
ASUS43 KIND 040409
RWRIN

WEATHER ROUNDUP FOR INDIANA
NATIONAL WEATHER SERVICE INDIANAPOLIS IN
1200 AM EDT TUE AUG 04 2015

NOTE: "FAIR" INDICATES FEW OR NO CLOUDS BELOW 12,000 FEET WITH NO
SIGNIFICANT WEATHER AND/OR OBSTRUCTIONS TO VISIBILITY.

* - STATION DOES NOT REPORT WEATHER SUCH AS PRECIPITATION OR FOG.

+ - STATION NOT QUALITY CONTROLLED BY THE NATIONAL WEATHER SERVICE.
    USE DATA WITH CAUTION...ESPECIALLY DEWPOINT AND RELATIVE
    HUMIDITY OBSERVATIONS.

INZ001>003-010>013-019-020-040500-
NORTHWEST INDIANA

CITY           SKY/WX    TMP DP  RH WIND       PRES   REMARKS
GARY /AIRPORT/ CLEAR     65  59  81 SW3       29.92R
KNOX *+        CLEAR     61  61 100 SW3       29.92R
LA PORTE +     CLEAR     62  61  98 CALM      29.93R
MICHIGAN CITY+ CLEAR     61  55  82 CALM      29.92S
MONTICELLO +   CLEAR     64  59  85 CALM      29.93S
RENSSELAER +   CLEAR     63  59  88 SW3       29.94S
VALPARAISO     CLEAR     64  57  78 SW3       29.93R

$$

LMZ046-743>745-040500-
SOUTHERN LAKE MICHIGAN

STATION/POSITION TIME  TEMP    WIND        PRES    WAVE
                       AIR SEA DIR/SP/G            HT
                 (UTC) (F)     (DEG/KT/KT) (MB)    (FT)
BURNS HARBOR     0300   71     180/  3/  5 1013.2R
MICHIGAN CITY    0300   71     170/  6/  7   N/A
5NW MICH CITY    0400   72 74  210/  8/ 10   N/A     1

$$

INZ004-005-014>016-021>024-040500-
NORTH CENTRAL INDIANA

CITY           SKY/WX    TMP DP  RH WIND       PRES   REMARKS
GOSHEN         CLEAR     61  57  87 CALM      29.91S
LOGANSPORT +   CLEAR     63  57  82 CALM      29.94S
PERU/GRISSOM   CLEAR     64  59  82 CALM      29.92S
ROCHESTER +    CLEAR     66  59  77 CALM      29.93S
SOUTH BEND     CLEAR     65  54  67 SW5       29.92R
WARSAW +       CLEAR     59  57  94 CALM      29.92S

$$

INZ006>009-017-018-025>027-040500-
NORTHEAST INDIANA

CITY           SKY/WX    TMP DP  RH WIND       PRES   REMARKS
ANGOLA *+      CLEAR     59  55  88 CALM      29.91S
AUBURN +       CLEAR     61  55  82 CALM      29.92S
FORT WAYNE     CLEAR     63  56  78 CALM      29.92S
HUNTINGTON +   CLEAR     63  58  83 CALM      29.92S

$$

INZ028-029-035-036-043>045-051>053-040500-
WEST CENTRAL INDIANA

CITY           SKY/WX    TMP DP  RH WIND       PRES   REMARKS
LAFAYETTE      CLEAR     62  58  86 NW3       29.92S
TERRE HAUTE    CLEAR     72  65  78 NW5       29.93R

$$

INZ030>032-037>040-046>048-054>057-064-065-040500-
CENTRAL INDIANA

CITY           SKY/WX    TMP DP  RH WIND       PRES   REMARKS
FISHERS *+     CLEAR     70  61  73 CALM      29.93R
FRANKFORT +    CLEAR    N/A N/A N/A CALM      29.95F
GREENWOOD *+   PTCLDY    73  57  56 N5        29.93R
INDIANAPOLIS   CLEAR     72  61  68 N8        29.92R
-EAGLE CREEK   CLEAR     72  64  76 N5        29.92R
KOKOMO *+      CLEAR     64  57  77 CALM      29.93S
MARION +       CLEAR     63  59  87 CALM      29.94S
MT COMFORT *+  CLEAR     70  57  64 NW7       29.93R
SHELBYVILLE    CLEAR     72  66  81 N6        29.91R
ZIONSVILLE +   CLEAR     67  59  74 NW6       29.94S

$$

INZ033-034-041-042-049-050-058-059-040500-
EAST CENTRAL INDIANA

CITY           SKY/WX    TMP DP  RH WIND       PRES   REMARKS
MUNCIE         CLEAR     65  61  87 NW3       29.93R

$$

INZ060-061-067>069-081>083-085>088-040500-
SOUTHWEST INDIANA

CITY           SKY/WX    TMP DP  RH WIND       PRES   REMARKS
EVANSVILLE     CLEAR     81  69  67 NW3       29.93R
HUNTINGBURG *+ CLEAR     75  68  78 NW3       29.93R
WASHINGTON +   CLEAR     73  66  79 W5        29.92R

$$

INZ062-063-066-070>080-084-089>092-040500-
SOUTH CENTRAL AND SOUTHEAST INDIANA

CITY           SKY/WX    TMP DP  RH WIND       PRES   REMARKS
BLOOMINGTON    CLEAR     73  65  75 NW3       29.93R
MADISON *+     CLOUDY    73  70  88 CALM      29.94R
NORTH VERNON + CLEAR     72  72 100 CALM      29.92R
SEYMOUR +      CLEAR     75  68  78 NW5       29.91R

$$



USA.gov is the U.S. government's official web portal to all federal, state and local government web resources and services.